This is the latest recevied weather packets stored in our database for station/object K2BIG. If no packets are shown the sender has not sent any weather packets the latest 10 day(s).
| Time | Temp. | Humidity | Pressure | Rain* | Wind** | Luminosity | Snow |
|---|---|---|---|---|---|---|---|
| 1777662316 | 19.44° C | 42% | 1010.2 hPa | 0 mm | - | - | - |
| 1777662016 | 19.44° C | 42% | 1010.2 hPa | 0 mm | - | - | - |
| 1777661715 | 19.44° C | 40% | 1010.2 hPa | 0 mm | - | - | - |
| 1777661415 | 18.89° C | 39% | 1010.5 hPa | 0 mm | - | - | - |
| 1777661115 | 18.89° C | 42% | 1010.6 hPa | 0 mm | - | - | - |
| 1777660815 | 18.89° C | 41% | 1010.6 hPa | 0 mm | - | - | - |
| 1777660515 | 18.89° C | 43% | 1010.6 hPa | 0 mm | - | - | - |
| 1777660215 | 18.89° C | 40% | 1010.8 hPa | 0 mm | - | - | - |
| 1777659915 | 18.89° C | 40% | 1010.7 hPa | 0 mm | - | - | - |
| 1777659615 | 18.89° C | 42% | 1010.8 hPa | 0 mm | - | - | - |
| 1777659315 | 18.89° C | 41% | 1010.8 hPa | 0 mm | - | - | - |
| 1777659015 | 18.89° C | 39% | 1010.9 hPa | 0 mm | - | - | - |
| 1777658715 | 18.89° C | 43% | 1010.9 hPa | 0 mm | - | - | - |
| 1777658415 | 18.89° C | 43% | 1011 hPa | 0 mm | - | - | - |
| 1777658115 | 18.33° C | 42% | 1010.9 hPa | 0 mm | - | - | - |
| 1777657815 | 18.33° C | 40% | 1010.9 hPa | 0 mm | - | - | - |
| 1777657515 | 18.33° C | 44% | 1011 hPa | 0 mm | - | - | - |
| 1777657215 | 17.78° C | 39% | 1011 hPa | 0 mm | - | - | - |
| 1777656915 | 17.78° C | 44% | 1011.1 hPa | 0 mm | - | - | - |
| 1777656615 | 18.33° C | 44% | 1011.2 hPa | 0 mm | - | - | - |
| 1777656315 | 17.78° C | 42% | 1011.2 hPa | 0 mm | - | - | - |
| 1777656015 | 17.78° C | 41% | 1011.1 hPa | 0 mm | - | - | - |
| 1777655715 | 17.78° C | 44% | 1011.3 hPa | 0 mm | - | - | - |
| 1777655415 | 17.78° C | 39% | 1011.4 hPa | 0 mm | - | - | - |
| 1777655115 | 17.78° C | 44% | 1011.4 hPa | 0 mm | - | - | - |
* Rain latest hour (hover to see other rain measurements)
** Current wind speed in m/s (hover to see current wind gust speed)